GW3666 Weather Reports


time (UTC)temp
F
wind
direction
speed
knots
gust
knots
rain 1hr
in
rain 24hr
in
rain mn
in
humidity
%
barometer
mb
20260505230816 66 348 2.6 2.6 0.00 0.00 0.00 74 1015.7
20260505230313 65 316 2.6 2.6 0.00 0.00 0.00 77 1015.8
20260505225809 65 317 4.3 5.2 0.00 0.00 0.00 77 1015.8
20260505225307 65 350 1.7 1.7 0.00 0.00 0.00 78 1015.8
20260505224802 66 308 4.3 6.1 0.00 0.00 0.00 75 1015.9
20260505224300 66 326 5.2 5.2 0.00 0.00 0.00 75 1016.0
20260505223757 66 334 2.6 2.6 0.00 0.00 0.00 77 1015.8
20260505223254 66 299 0.9 1.7 0.00 0.00 0.00 76 1015.9
20260505222749 66 348 0.0 0.9 0.00 0.00 0.00 78 1015.9
20260505222246 66 219 2.6 5.2 0.00 0.00 0.00 74 1016.0
20260505221743 66 350 3.5 4.3 0.00 0.00 0.00 78 1016.0
20260505221240 65 331 4.3 6.1 0.00 0.00 0.00 77 1015.8
20260505220736 64 353 2.6 2.6 0.00 0.00 0.00 79 1016.1
20260505220234 64 299 2.6 2.6 0.00 0.00 0.00 78 1015.9
20260505215732 65 315 4.3 5.2 0.00 0.00 0.00 77 1016.0
20260505215229 65 209 0.9 1.7 0.00 0.00 0.00 81 1016.1
20260505214727 65 338 2.6 2.6 0.00 0.00 0.00 77 1016.1
20260505214224 66 288 2.6 2.6 0.00 0.00 0.00 78 1016.1
20260505213721 64 322 3.5 4.3 0.00 0.00 0.00 77 1016.2
20260505213218 64 324 2.6 2.6 0.00 0.00 0.00 78 1016.3
20260505212714 64 350 2.6 4.3 0.00 0.00 0.00 80 1016.4
20260505212212 64 332 1.7 1.7 0.00 0.00 0.00 80 1016.2
20260505211709 64 330 1.7 1.7 0.00 0.00 0.00 81 1016.3
20260505211206 63 328 2.6 4.3 0.00 0.00 0.00 79 1016.3
20260505210702 64 288 2.6 4.3 0.00 0.00 0.00 79 1016.4
20260505210159 63 304 2.6 2.6 0.00 0.00 0.00 80 1016.4
20260505205657 63 67 1.7 2.6 0.00 0.00 0.00 80 1016.6
20260505205155 63 323 5.2 6.1 0.00 0.00 0.00 81 1016.6
20260505204651 62 150 2.6 5.2 0.00 0.00 0.00 81 1016.5
20260505204149 62 22 3.5 6.1 0.00 0.00 0.00 81 1016.4
20260505203645 62 36 0.9 1.7 0.00 0.00 0.00 81 1016.5
20260505203137 62 321 1.7 1.7 0.00 0.00 0.00 82 1016.5
20260505202632 62 323 2.6 2.6 0.00 0.00 0.00 82 1016.4
20260505202128 63 304 4.3 6.1 0.00 0.00 0.00 80 1016.4
20260505201619 63 327 1.7 1.7 0.00 0.00 0.00 80 1016.2
20260505201111 64 338 0.0 0.9 0.00 0.00 0.00 79 1016.1
20260505200609 63 326 0.0 0.0 0.00 0.00 0.00 81 1016.3
20260505200105 63 297 0.9 0.9 0.00 0.00 0.00 79 1016.5
20260505195556 63 183 0.9 1.7 0.00 0.00 0.00 80 1016.5
20260505195054 62 81 0.0 0.9 0.00 0.00 0.00 83 1016.2
20260505194550 62 186 1.7 1.7 0.00 0.00 0.00 80 1016.5
20260505194046 62 332 2.6 2.6 0.00 0.00 0.00 82 1016.3
20260505193543 61 288 2.6 2.6 0.00 0.00 0.00 83 1016.4
20260505193040 61 276 1.7 4.3 0.00 0.00 0.00 82 1016.4
20260505192538 61 272 3.5 5.2 0.00 0.00 0.00 82 1016.3
20260505192036 61 315 0.9 1.7 0.00 0.00 0.00 82 1016.5
20260505191534 62 322 0.0 0.0 0.00 0.00 0.00 82 1016.3
20260505191031 62 331 0.9 0.9 0.00 0.00 0.00 80 1016.6
20260505190526 62 197 0.0 0.0 0.00 0.00 0.00 82 1016.4
20260505190023 62 308 0.0 0.0 0.00 0.00 0.00 82 1016.4
20260505185520 62 352 0.0 0.0 0.00 0.00 0.00 81 1016.7
20260505185016 62 145 2.6 5.2 0.00 0.00 0.00 81 1016.5
20260505184513 61 39 0.9 0.9 0.00 0.00 0.00 82 1016.6
20260505184010 62 63 0.0 0.9 0.00 0.00 0.00 80 1016.6
20260505183506 61 113 0.0 0.0 0.00 0.00 0.00 81 1016.7
20260505183002 60 293 0.0 0.9 0.00 0.00 0.00 82 1016.7
20260505182500 60 200 0.0 0.0 0.00 0.00 0.00 82 1016.4
20260505181955 61 349 0.0 0.0 0.00 0.00 0.00 83 1016.5
20260505181453 60 189 1.7 2.6 0.00 0.00 0.00 84 1016.5
20260505180950 60 332 0.0 0.0 0.00 0.00 0.00 82 1016.3
20260505180446 60 216 0.0 0.0 0.00 0.00 0.00 82 1016.5
20260505175943 60 342 0.0 0.0 0.00 0.00 0.00 82 1016.4
20260505175439 60 44 0.0 0.0 0.00 0.00 0.00 83 1016.2
20260505174936 59 342 0.0 0.0 0.00 0.00 0.00 84 1016.4
20260505174433 59 310 2.6 2.6 0.00 0.00 0.00 84 1016.4
20260505173929 59 170 0.0 0.0 0.00 0.00 0.00 84 1016.1
20260505173426 60 296 0.0 0.0 0.00 0.00 0.00 83 1016.5
20260505172923 59 184 0.0 0.0 0.00 0.00 0.00 83 1016.2
20260505172421 59 152 1.7 2.6 0.00 0.00 0.00 82 1016.1
20260505171920 59 317 0.0 0.0 0.00 0.00 0.00 84 1016.2
20260505171417 59 348 0.0 0.0 0.00 0.00 0.00 84 1016.3
20260505170914 59 333 0.9 0.9 0.00 0.00 0.00 84 1016.1
20260505170411 58 338 0.0 0.0 0.00 0.00 0.00 86 1016.3
20260505165906 58 7 0.0 0.9 0.00 0.00 0.00 87 1016.2
20260505165356 58 297 0.9 1.7 0.00 0.00 0.00 85 1016.2
20260505164852 58 327 2.6 2.6 0.00 0.00 0.00 86 1016.1
20260505164349 58 300 0.0 0.0 0.00 0.00 0.00 85 1015.9
20260505163847 58 302 0.0 0.0 0.00 0.00 0.00 86 1016.0
20260505163346 58 311 0.0 0.0 0.00 0.00 0.00 85 1015.8
20260505162844 58 302 0.0 0.0 0.00 0.00 0.00 85 1015.9
20260505162339 58 143 0.0 0.0 0.00 0.00 0.00 85 1016.0
20260505161831 58 315 0.0 0.0 0.00 0.00 0.00 87 1016.1
20260505161328 57 325 0.0 0.0 0.00 0.00 0.00 86 1015.9
20260505160825 58 325 0.0 0.0 0.00 0.00 0.00 86 1015.9
20260505160323 57 148 0.0 0.0 0.00 0.00 0.00 87 1015.8
20260505153301 57 235 0.0 0.0 0.00 0.00 0.00 88 1015.9
20260505152759 57 230 0.0 0.0 0.00 0.00 0.00 89 1015.8
20260505152255 56 189 0.0 0.0 0.00 0.00 0.00 89 1015.7
20260505151749 57 205 0.0 0.0 0.00 0.00 0.00 89 1015.9
20260505151247 57 352 0.0 0.0 0.00 0.00 0.00 89 1015.5
20260505150744 57 313 0.0 0.0 0.00 0.00 0.00 89 1015.7
20260505150241 56 10 0.0 0.0 0.00 0.00 0.00 89 1015.8
20260505140206 56 292 0.0 0.0 0.00 0.00 0.00 91 1015.1
20260505130130 55 73 0.0 0.0 0.00 0.00 0.00 92 1014.6
20260505124619 55 199 0.0 0.0 0.00 0.00 0.00 92 1014.4
20260505124116 55 162 0.0 0.0 0.00 0.00 0.00 92 1014.4
20260505123612 55 164 0.0 0.0 0.00 0.00 0.00 92 1014.5
20260505123108 55 110 2.6 2.6 0.00 0.00 0.00 92 1014.5
20260505122604 55 57 0.0 0.0 0.00 0.00 0.00 92 1014.4
20260505122102 55 86 0.0 0.0 0.00 0.00 0.00 92 1014.3
20260505121553 55 332 0.0 0.0 0.00 0.00 0.00 92 1014.4
20260505121050 55 39 0.0 0.0 0.00 0.00 0.00 92 1014.5
20260505120546 55 7 0.0 0.0 0.00 0.00 0.00 92 1014.3
20260505120042 55 343 0.0 0.0 0.00 0.00 0.00 92 1014.1
20260505115536 55 228 0.0 0.0 0.00 0.00 0.00 92 1014.3
20260505115034 55 47 0.0 0.0 0.00 0.00 0.00 92 1014.1
20260505114531 55 274 0.0 0.0 0.00 0.00 0.00 92 1014.3
20260505114027 55 47 0.0 0.0 0.00 0.00 0.00 92 1014.2
20260505113524 56 108 0.0 0.0 0.00 0.00 0.00 92 1014.4
20260505113020 56 172 2.6 2.6 0.00 0.00 0.00 92 1014.3
20260505112516 56 178 0.0 0.9 0.00 0.00 0.00 92 1014.4
20260505112014 56 197 0.9 1.7 0.00 0.00 0.00 93 1014.3
20260505111508 56 187 0.0 0.0 0.00 0.00 0.00 93 1014.3
20260505111005 56 194 1.7 1.7 0.00 0.00 0.00 93 1014.4
20260505110502 56 60 0.0 0.0 0.00 0.00 0.00 93 1014.3
20260505101933 56 329 0.0 1.7 0.00 0.00 0.00 93 1014.0
20260505101427 56 83 0.9 1.7 0.00 0.00 0.00 94 1013.8
20260505100923 56 22 0.0 0.0 0.00 0.00 0.00 94 1013.8
20260505100420 55 152 0.0 0.0 0.00 0.00 0.00 94 1013.8
20260505095915 55 78 0.0 0.0 0.00 0.00 0.00 94 1013.8
20260505095413 55 141 0.0 0.0 0.00 0.00 0.00 94 1013.6
20260505094909 55 350 0.0 0.0 0.00 0.00 0.00 94 1013.9
20260505094406 55 80 0.0 0.0 0.00 0.00 0.00 94 1013.4
20260505093901 55 43 0.0 0.0 0.00 0.00 0.00 94 1013.5
20260505093359 55 4 0.0 0.0 0.00 0.00 0.00 94 1013.5
20260505092856 55 150 0.9 1.7 0.00 0.00 0.00 95 1013.4
20260505092354 55 324 1.7 4.3 0.00 0.00 0.00 95 1013.4
20260505091851 55 342 0.0 0.0 0.00 0.00 0.00 95 1013.6
20260505091349 54 185 0.0 0.0 0.00 0.00 0.00 96 1013.4
20260505090847 54 90 0.0 0.0 0.00 0.00 0.00 96 1013.4
20260505090345 54 165 0.0 0.0 0.00 0.00 0.00 97 1013.5
20260505085842 53 62 0.0 0.9 0.00 0.00 0.00 97 1013.6
20260505085340 54 334 0.0 0.0 0.00 0.00 0.00 96 1013.3
20260505084837 54 80 0.0 0.9 0.00 0.00 0.00 96 1013.1
20260505084335 53 266 0.0 0.0 0.00 0.00 0.00 96 1013.4
20260505083832 54 179 0.0 0.0 0.00 0.00 0.00 96 1013.3
20260505083330 53 37 0.0 0.0 0.00 0.00 0.00 96 1013.2
20260505082826 54 60 0.0 0.0 0.00 0.00 0.00 96 1013.2
20260505082323 54 25 0.0 0.0 0.00 0.00 0.00 96 1013.2
20260505081819 54 176 0.0 0.0 0.00 0.00 0.00 96 1013.1
20260505081316 54 223 0.0 0.0 0.00 0.00 0.00 96 1013.1
20260505080813 54 92 0.0 0.0 0.00 0.00 0.00 95 1013.5
20260505080309 54 353 0.0 0.0 0.00 0.00 0.00 95 1013.4
20260505075804 54 129 0.0 0.0 0.00 0.00 0.00 95 1013.2
20260505075304 54 118 0.0 0.0 0.00 0.00 0.00 95 1013.0
20260505074759 54 124 0.0 0.9 0.00 0.00 0.00 95 1013.2
20260505074256 54 197 0.0 0.0 0.00 0.00 0.00 95 1012.9
20260505073753 54 75 0.0 0.0 0.00 0.00 0.00 96 1012.8
20260505073251 53 47 0.0 0.0 0.00 0.00 0.00 97 1012.9
20260505072747 53 22 0.0 0.0 0.00 0.00 0.00 96 1012.8
20260505072244 53 68 0.0 0.0 0.00 0.00 0.00 96 1012.8
20260505071739 53 10 0.0 0.0 0.00 0.00 0.00 96 1012.8
20260505071236 54 13 0.0 0.0 0.00 0.00 0.00 95 1012.6
20260505070734 54 298 0.0 0.0 0.00 0.00 0.00 95 1012.7
20260505070230 54 208 0.0 0.0 0.00 0.00 0.00 95 1012.8
20260505065726 54 98 0.0 0.0 0.00 0.00 0.00 94 1012.7
20260505065223 55 192 0.0 0.0 0.00 0.00 0.00 93 1012.5
20260505064720 55 76 0.0 0.0 0.00 0.00 0.00 93 1012.4
20260505064218 55 281 0.0 0.0 0.00 0.00 0.00 93 1012.3
20260505063715 56 343 0.0 0.0 0.00 0.00 0.00 91 1012.3
20260505063211 55 160 0.9 1.7 0.00 0.00 0.00 92 1012.2
20260505062707 56 210 0.0 0.0 0.00 0.00 0.00 91 1012.3
20260505062205 56 241 1.7 1.7 0.00 0.00 0.00 90 1012.2
20260505061702 56 57 0.0 0.0 0.00 0.00 0.00 90 1012.0
20260505061200 56 187 1.7 1.7 0.00 0.00 0.00 89 1012.1
20260505060657 56 101 0.0 0.0 0.00 0.00 0.00 90 1011.9
20260505060154 56 308 0.9 0.9 0.00 0.00 0.00 89 1011.8
20260505055649 57 227 0.0 0.9 0.00 0.00 0.00 89 1011.9
20260505055146 56 156 0.9 0.9 0.00 0.00 0.00 89 1011.6
20260505054643 56 58 0.0 0.0 0.00 0.00 0.00 88 1011.7
20260505054141 57 5 0.0 0.9 0.00 0.00 0.00 87 1011.9
20260505053639 57 251 0.9 0.9 0.00 0.00 0.00 86 1011.7
20260505053135 57 272 0.0 0.0 0.00 0.00 0.00 86 1011.5
20260505052632 57 312 0.0 0.0 0.00 0.00 0.00 86 1011.7
20260505052129 58 19 0.0 0.0 0.00 0.00 0.00 85 1011.6
20260505051626 58 348 0.0 0.0 0.00 0.00 0.00 85 1011.6
20260505051124 58 176 1.7 2.6 0.00 0.00 0.00 84 1011.5
20260505050622 58 176 1.7 2.6 0.00 0.00 0.00 85 1011.6
20260505050120 58 142 0.9 1.7 0.00 0.00 0.00 84 1011.4
20260505041549 61 309 0.0 0.9 0.00 0.00 0.00 75 1011.3
20260505041047 61 339 0.0 0.0 0.00 0.00 0.00 75 1011.3
20260505040544 61 31 0.0 0.0 0.00 0.00 0.00 74 1011.2
20260505040041 62 0 0.0 0.0 0.00 0.00 0.00 73 1011.0
20260505035537 61 35 1.7 1.7 0.00 0.00 0.00 72 1011.1
20260505035034 62 188 0.0 0.9 0.00 0.00 0.00 73 1010.9
20260505034530 62 214 0.9 0.9 0.00 0.00 0.00 73 1010.9
20260505034027 63 343 0.0 0.0 0.00 0.00 0.00 73 1010.9
20260505033525 63 163 0.9 1.7 0.00 0.00 0.00 73 1010.8
20260505033023 63 297 1.7 1.7 0.00 0.00 0.00 73 1010.5
20260505032520 64 30 0.0 0.0 0.00 0.00 0.00 74 1010.4
20260505032016 64 338 0.0 0.0 0.00 0.00 0.00 70 1010.6
20260505031514 65 5 0.0 0.0 0.00 0.00 0.00 71 1010.7
20260505031010 65 60 0.0 0.0 0.00 0.00 0.00 69 1010.4
20260505030507 66 40 0.0 0.0 0.00 0.00 0.00 68 1010.4
20260505030003 66 58 0.0 0.0 0.00 0.00 0.00 67 1010.4
20260505025459 67 40 0.0 0.0 0.00 0.00 0.00 65 1010.4
20260505024958 67 65 0.0 0.0 0.00 0.00 0.00 65 1010.2
20260505024454 68 1 1.7 1.7 0.00 0.00 0.00 64 1010.0
20260505023952 68 214 0.9 0.9 0.00 0.00 0.00 63 1010.1
20260505023449 69 106 1.7 1.7 0.00 0.00 0.00 62 1010.1
20260505022946 70 335 0.9 0.9 0.00 0.00 0.00 61 1010.0
20260505022444 71 172 0.9 0.9 0.00 0.00 0.00 60 1010.0
20260505021941 71 171 1.7 1.7 0.00 0.00 0.00 58 1010.1
20260505021437 72 143 0.9 0.9 0.00 0.00 0.00 58 1010.1
20260505020933 72 101 0.9 0.9 0.00 0.00 0.00 60 1009.9
20260505020428 72 97 0.9 0.9 0.00 0.00 0.00 59 1010.1
20260505015925 72 4 0.9 1.7 0.00 0.00 0.00 58 1010.1
20260505015422 73 67 0.0 0.9 0.00 0.00 0.00 58 1009.9
20260505014920 73 111 0.9 1.7 0.00 0.00 0.00 58 1009.9
20260505014416 74 114 1.7 2.6 0.00 0.00 0.00 56 1009.9
20260505013913 74 143 1.7 4.3 0.00 0.00 0.00 56 1009.8
20260505013410 75 213 0.9 1.7 0.00 0.00 0.00 54 1009.8
20260505012909 75 118 2.6 4.3 0.00 0.00 0.00 53 1009.8
20260505012406 76 113 0.9 0.9 0.00 0.00 0.00 53 1009.8
20260505011902 76 85 0.9 1.7 0.00 0.00 0.00 52 1009.9
20260505011359 76 279 3.5 6.1 0.00 0.00 0.00 52 1009.6
20260505010855 77 174 1.7 2.6 0.00 0.00 0.00 52 1009.8
20260505010351 77 2 0.0 0.0 0.00 0.00 0.00 51 1009.9
20260505005847 77 12 1.7 1.7 0.00 0.00 0.00 49 1009.8
20260505005344 77 330 0.9 1.7 0.00 0.00 0.00 51 1010.0
20260505004842 78 336 3.5 5.2 0.00 0.00 0.00 48 1009.8
20260505004338 78 318 0.9 0.9 0.00 0.00 0.00 46 1009.8
20260505003835 79 259 0.9 0.9 0.00 0.00 0.00 47 1009.7
20260505003333 80 299 0.9 1.7 0.00 0.00 0.00 44 1009.8
20260505002828 80 97 2.6 2.6 0.00 0.00 0.00 44 1009.7
20260505002326 80 80 0.9 1.7 0.00 0.00 0.00 46 1009.6
20260505001824 80 182 0.9 1.7 0.00 0.00 0.00 47 1009.7
20260505001320 81 224 3.5 5.2 0.00 0.00 0.00 46 1009.8
20260505000818 81 94 0.9 0.9 0.00 0.00 0.00 46 1009.7
20260505000316 80 330 0.9 1.7 0.00 0.00 0.00 51 1009.4
20260504235812 79 12 2.6 4.3 0.00 0.00 0.00 46 1009.9
20260504235309 80 333 4.3 6.1 0.00 0.00 0.00 47 1009.7
20260504234806 80 359 2.6 5.2 0.00 0.00 0.00 49 1009.6
20260504234303 80 317 2.6 2.6 0.00 0.00 0.00 46 1009.6
20260504233759 79 77 2.6 4.3 0.00 0.00 0.00 47 1009.6
20260504233255 78 316 4.3 5.2 0.00 0.00 0.00 48 1009.7
20260504232752 80 328 0.9 0.9 0.00 0.00 0.00 49 1009.7
20260504232249 82 308 3.5 5.2 0.00 0.00 0.00 52 1009.6
20260504231746 81 227 0.9 1.7 0.00 0.00 0.00 49 1009.8
20260504231243 80 327 1.7 2.6 0.00 0.00 0.00 47 1009.9